This demonstration page uses our WeatherBlox Daily Observations layout. Learn more.

Left ArrowRight Arrow

38.80484, -77.04692

Hourly Observations for July 19, 2018

Temp ( °F °C ) Dew Point ( °F °C ) Humidity (%) Winds ( mph kmh ) Pressure ( in mb ) Visibility ( mi km ) Precip ( " mm )
12:52 am 00:52 Mostly Clear 75 23.9 59 15 58 58 NNW 7 11 30.01 1016 10 16 0.00 0.00
1:52 am 01:52 Partly Cloudy 74 23.3 60 15.6 62 62 NNW 6 9 30.02 1017 10 16 0.00 0.00
2:52 am 02:52 Partly Cloudy 73 22.8 61 16.1 66 66 N 6 9 30.03 1017 10 16 0.00 0.00
3:52 am 03:52 Partly Cloudy 71 21.7 63 17.2 76 76 N 6 9 30.04 1017 10 16 0.00 0.00
4:52 am 04:52 Partly Cloudy 72 22.2 59 15 64 64 NNE 8 13 30.04 1017 10 16 0.00 0.00
5:52 am 05:52 Mostly Cloudy 73 22.8 58 14.4 59 59 NNE 9 15 30.06 1018 10 16 0.00 0.00
6:52 am 06:52 Mostly Sunny 73 22.8 58 14.4 59 59 NE 8 13 30.07 1018 10 16 0.00 0.00
7:52 am 07:52 Mostly Sunny 75 23.9 56 13.3 52 52 N 8 13 30.09 1019 10 16 0.00 0.00
8:52 am 08:52 Mostly Sunny 77 25 56 13.3 48 48 NE 10 17 30.11 1020 10 16 0.00 0.00
9:52 am 09:52 Mostly Sunny 79 26.1 55 12.8 44 44 NE 8 13 30.11 1020 10 16 0.00 0.00
10:52 am 10:52 Partly Cloudy 82 27.8 55 12.8 40 40 NE 6 9 30.11 1020 10 16 0.00 0.00
11:52 am 11:52 Partly Cloudy 84 28.9 56 13.3 38 38 N 5 7 30.11 1020 10 16 0.00 0.00
12:52 pm 12:52 Mostly Cloudy 84 28.9 56 13.3 38 38 S 5 7 30.10 1019 10 16 0.00 0.00
1:52 pm 13:52 Mostly Cloudy 85 29.4 55 12.8 36 36 SE 5 7 30.09 1019 10 16 0.00 0.00
2:52 pm 14:52 Mostly Cloudy 86 30 54 12.2 33 33 SSE 5 7 30.07 1018 10 16 0.00 0.00
3:52 pm 15:52 Mostly Cloudy 87 30.6 54 12.2 32 32 S 6 9 30.06 1018 10 16 0.00 0.00
4:52 pm 16:52 Mostly Cloudy 87 30.6 53 11.7 31 31 S 7 11 30.06 1018 10 16 0.00 0.00
5:52 pm 17:52 Mostly Cloudy 86 30 56 13.3 36 36 S 8 13 30.05 1018 10 16 0.00 0.00
6:52 pm 18:52 Mostly Cloudy 84 28.9 58 14.4 41 41 SSE 14 22 30.05 1018 10 16 0.00 0.00
7:52 pm 19:52 Cloudy 82 27.8 59 15 46 46 SSE 8 13 30.05 1018 10 16 0.00 0.00
8:52 pm 20:52 Cloudy 80 26.7 58 14.4 47 47 ESE 9 15 30.06 1018 10 16 0.00 0.00
9:52 pm 21:52 Mostly Cloudy 79 26.1 57 13.9 47 47 S 3 6 30.08 1019 10 16 0.00 0.00
10:52 pm 22:52 Mostly Cloudy 77 25 57 13.9 50 50 S 5 7 30.09 1019 10 16 0.00 0.00
11:52 pm 23:52 Cloudy 76 24.4 59 15 56 56 SW 6 9 30.10 1019 10 16 0.00 0.00

Powered by AerisWeather